SCP
0 0 0 0 0 0 0 0 0 0 0 0 0 1 1 1 1 1 1 1 1 1 1 1 1 1 1 1 1 1 1 1 1 1 2 2 2 1 1 1 1 1 1
0 0 0 0 0 0 0 0 0 0 0 0 0 0 0 1 1 1 1 1 1 1 1 1 1 1 1 1 1 1 1 1 1 1 2 2 2 1 1 1 1 1 1
0 0 0 0 0 0 0 0 0 0 0 0 0 0 0 1 1 1 1 1 1 1 1 1 1 1 1 1 1 1 1 1 1 1 1 1 1 1 1 1 1 1 1
0 0 0 0 0 0 0 0 0 0 0 0 0 0 0 0 0 0 1 1 1 1 1 1 1 1 1 2 2 1 1 1 1 1 1 1 1 1 1 1 1 1 1
0 0 0 0 0 0 0 0 0 0 0 0 0 0 0 0 0 0 1 1 1 1 1 1 1 1 2 2 2 2 2 2 1 1 1 1 1 1 1 1 1 1 1
0 0 0 0 0 0 0 0 0 0 0 0 0 0 0 0 0 0 1 1 1 1 1 1 1 1 2 2 2 2 2 2 1 1 1 1 1 1 1 1 1 1 1
0 0 0 0 0 0 0 0 0 0 0 0 0 0 0 0 0 0 0 1 1 1 1 1 1 1 2 2 2 2 2 1 1 1 1 1 1 1 1 1 1 1 1
0 0 0 0 0 1 0 0 0 0 0 0 0 0 0 0 0 0 0 0 1 1 1 1 1 1 1 2 2 2 1 1 1 1 1 1 1 1 1 1 1 1 1
0 0 0 0 0 1 0 0 0 0 0 0 0 0 0 0 0 0 0 0 0 0 1 1 1 1 1 2 2 2 1 1 1 1 1 1 1 1 1 1 1 1 1
0 0 0 0 0 0 0 0 0 0 0 0 0 0 0 0 0 0 0 0 0 0 1 1 1 1 1 2 2 2 1 1 1 1 1 1 1 1 1 1 1 1 1
0 0 0 0 0 0 0 0 0 0 0 0 0 1 0 0 0 0 0 0 0 0 1 1 1 1 1 1 1 1 1 1 1 1 1 1 1 1 1 1 1 1 1
1 0 0 0 0 0 0 0 0 0 0 0 0 0 0 0 0 0 0 0 0 0 1 1 1 1 1 1 1 1 1 1 1 1 1 1 1 1 1 1 1 1 1
0 0 0 0 0 0 0 0 0 0 0 0 0 0 0 0 0 0 0 0 0 0 0 0 0 0 0 0 0 1 1 1 1 1 0 1 1 1 1 1 1 1 1
0 0 0 0 0 0 0 0 0 0 0 0 0 0 0 0 0 0 0 0 0 0 0 0 0 0 0 0 0 0 0 0 0 0 0 0 1 1 2 1 1 1 1
0 0 0 0 0 0 0 0 0 0 0 0 0 0 0 0 0 0 0 0 0 0 0 0 0 0 0 0 0 0 0 0 0 0 0 0 1 1 1 1 1 1 1
0 0 0 0 0 0 0 0 0 0 0 0 0 0 0 0 0 0 0 0 0 0 0 0 0 0 0 0 0 0 0 0 0 0 0 0 0 1 1 1 1 1 1
0 0 0 0 0 0 0 0 0 0 0 0 0 0 0 0 0 0 0 0 0 0 0 0 0 0 0 0 0 0 0 0 0 0 0 0 0 0 0 1 1 1 1
1 1 0 0 0 0 0 0 0 0 0 0 0 0 0 0 0 0 0 0 0 0 0 0 0 0 0 0 0 0 0 0 0 0 0 0 0 0 0 0 0 1 1
1 1 1 0 0 0 0 0 0 0 0 0 0 0 0 0 0 0 0 0 0 0 0 0 0 0 0 0 0 0 0 0 0 0 0 0 0 0 0 0 0 1 1
1 1 1 1 0 0 0 0 0 0 0 0 0 0 0 0 0 0 0 0 0 0 0 0 0 0 0 0 0 0 0 0 0 0 0 0 0 0 0 0 0 0 0
1 1 1 1 1 0 0 0 0 0 0 0 0 0 0 0 0 0 0 0 0 0 0 0 0 0 0 0 0 0 0 0 0 0 0 0 0 0 0 0 0 0 0
1 1 1 1 1 0 0 0 0 0 0 0 0 0 0 0 0 0 0 0 0 0 0 0 0 0 0 0 0 0 0 0 0 0 0 0 0 0 0 0 0 0 0
1 1 1 1 1 0 0 0 0 0 0 0 0 0 0 0 0 0 0 0 0 0 0 0 0 0 0 0 0 0 0 0 0 0 0 0 0 0 0 0 0 0 0
0 1 1 1 1 0 0 0 0 0 0 0 0 0 0 0 0 0 0 0 0 0 0 0 0 0 0 0 0 0 0 0 0 0 0 0 0 0 0 0 0 0 0
0 1 1 1 0 0 0 0 0 0 0 0 0 0 0 0 0 0 0 0 0 0 0 0 0 0 0 0 0 0 0 0 0 0 0 0 0 0 0 0 0 0 0
0 1 1 1 0 0 0 0 0 0 0 0 0 0 0 0 0 0 0 0 0 0 0 0 0 0 0 0 0 0 0 0 0 0 0 0 0 0 0 0 0 0 0
Wind_Speed
1 2 0 4 5 6 7 7 8 8 8 8 8 8 9 9 8 8 8 9 8 8 8 9 9 9 9 8 8 7 7 7 7 7 7 7 7 7 7 7 6 4 6
1 0 2 4 6 6 6 7 8 8 8 8 8 8 9 9 9 10 10 10 9 9 9 9 10 10 10 9 8 7 7 7 7 7 7 6 6 6 6 6 5 3 5
2 1 2 4 5 6 7 7 8 8 8 8 8 8 8 9 9 9 10 10 9 9 9 9 9 9 10 10 9 8 8 7 7 8 7 4 3 5 5 5 5 5 5
2 1 2 4 5 6 7 7 7 8 8 8 8 9 8 8 8 9 9 9 9 9 9 9 9 10 10 10 9 9 9 8 8 7 4 3 2 4 5 4 4 4 4
2 1 2 5 5 6 7 7 7 7 7 8 8 8 8 8 8 9 9 9 9 9 9 9 9 10 10 10 10 10 9 9 8 6 3 3 2 4 4 4 4 3 3
2 1 2 5 6 6 7 7 7 7 7 7 7 8 8 8 8 8 8 8 8 9 9 9 9 10 10 10 10 10 10 9 7 4 3 3 2 3 4 4 4 3 2
2 1 2 5 6 7 7 6 7 7 7 7 7 7 8 8 8 8 8 8 8 9 9 9 10 10 10 9 9 9 9 8 5 4 3 2 2 5 4 4 4 3 2
3 2 2 4 6 6 6 6 6 7 7 7 7 8 8 8 8 8 8 8 9 9 10 10 10 10 10 10 9 9 8 7 5 4 3 2 5 6 6 5 5 4 4
3 3 2 2 3 5 6 6 6 7 7 8 8 8 8 8 9 9 9 9 9 10 10 10 10 11 11 10 10 9 9 9 4 2 3 2 5 6 6 6 6 6 6
3 2 2 2 2 3 3 5 6 7 7 8 8 9 9 9 9 10 10 10 10 10 10 11 11 11 11 11 10 10 10 7 4 3 2 3 6 6 7 7 7 7 8
2 1 2 2 2 2 2 4 5 6 7 7 6 8 8 5 5 6 8 11 11 10 11 11 11 12 11 11 11 11 8 3 4 3 2 5 7 7 7 8 8 8 8
3 1 1 1 1 2 2 3 3 3 4 4 4 4 4 4 4 5 8 11 11 11 10 11 12 11 9 5 8 8 4 5 4 3 3 7 7 7 8 8 9 9 8
3 2 2 2 1 2 2 2 2 2 2 3 4 4 3 3 3 4 3 5 6 8 6 7 7 5 5 4 4 4 5 4 3 3 4 8 8 8 8 8 8 8 8
3 3 2 3 2 2 2 2 2 2 2 2 2 3 3 2 3 3 3 3 3 3 4 4 4 5 6 5 5 5 5 4 4 3 4 9 9 9 8 8 8 8 8
4 3 3 4 3 3 2 2 2 1 1 2 2 2 3 2 2 2 2 3 3 3 3 3 4 5 5 5 5 5 5 5 5 5 4 10 10 9 9 8 8 8 8
4 4 3 4 4 3 2 2 2 1 1 2 2 2 2 2 2 2 2 2 2 2 2 3 3 4 3 4 5 5 4 4 5 5 4 6 10 10 10 9 8 9 8
5 4 4 5 4 4 3 2 2 2 2 2 1 1 2 2 2 2 2 2 2 2 3 3 4 3 4 4 4 4 4 4 4 5 4 4 5 8 10 10 9 8 8
4 4 4 4 4 4 3 3 2 2 2 1 1 2 2 2 3 3 2 1 1 2 3 3 3 3 3 3 3 3 3 3 4 4 4 4 4 4 7 10 9 8 8
5 5 4 4 4 4 3 3 2 2 2 1 1 1 2 2 3 3 2 1 2 2 2 3 2 2 2 3 3 3 3 3 3 4 5 5 5 4 4 7 10 9 9
4 4 4 4 4 4 3 3 2 2 1 1 1 1 2 2 2 3 2 2 2 3 2 3 3 3 2 2 3 4 3 3 3 4 4 4 4 5 5 5 5 6 10
4 4 5 4 4 4 3 2 2 1 1 1 1 2 2 2 3 3 2 2 2 2 2 3 2 3 2 2 2 3 3 3 4 3 3 3 5 5 5 5 4 4 4
4 4 5 5 4 4 3 3 2 2 1 1 1 1 2 2 2 3 3 2 2 3 3 2 2 2 1 2 2 2 3 4 4 4 3 3 4 4 4 5 4 4 4
5 5 5 5 5 4 4 3 3 3 2 2 1 0 0 2 2 2 3 3 3 3 3 2 2 3 2 1 2 2 2 1 2 3 3 3 3 3 3 3 4 4 4
6 5 4 4 4 4 4 4 5 4 3 2 2 1 1 1 2 2 3 3 3 2 2 2 2 2 3 1 1 2 1 2 1 1 2 2 3 3 3 3 3 3 3
5 4 4 4 4 4 4 5 5 3 2 1 1 2 1 1 1 2 3 3 3 2 2 2 2 2 2 2 2 1 1 2 1 2 1 3 2 2 2 2 2 3 3
4 4 4 4 4 4 4 4 4 5 4 3 2 2 1 0 0 1 2 2 2 2 2 2 2 3 2 2 2 2 2 2 1 2 1 1 2 2 2 2 2 2 2
Wind_Direction
277 274 2 84 82 78 76 76 73 71 72 75 76 77 79 80 75 78 96 95 90 87 89 91 92 93 90 91 96 100 103 108 111 114 118 123 122 122 122 121 117 112 124
178 275 103 92 87 83 79 80 75 70 68 71 76 79 80 80 78 75 84 90 89 86 87 89 89 90 88 86 91 96 96 98 101 102 102 104 113 118 121 121 122 122 127
114 78 94 93 87 83 80 77 78 74 71 72 75 78 81 82 83 83 81 82 83 83 84 86 89 89 87 84 82 86 88 90 92 89 81 76 95 108 118 122 122 124 128
115 86 99 103 94 87 81 76 76 77 77 78 79 80 82 84 83 84 81 81 82 82 86 88 87 86 86 84 80 83 88 87 87 85 72 66 80 98 106 113 115 121 129
103 89 118 114 104 95 87 80 77 78 79 80 80 81 84 89 86 83 84 84 84 84 84 89 87 84 83 80 78 79 83 82 80 74 66 58 65 87 95 101 99 110 125
110 90 119 113 106 97 89 82 79 78 79 79 81 80 80 84 85 84 84 87 90 89 86 88 86 84 82 79 77 78 76 72 74 69 64 57 57 86 92 96 97 98 109
118 83 105 109 102 96 93 88 81 80 80 81 82 82 79 77 76 78 79 87 89 88 86 84 83 81 79 76 76 78 77 70 65 66 59 57 68 77 80 83 83 87 96
110 84 84 109 104 98 94 88 85 83 79 79 81 81 78 74 69 70 74 81 84 83 82 83 81 79 76 74 74 74 72 68 63 60 57 59 79 79 72 70 74 78 88
92 83 55 55 74 85 85 85 84 81 78 79 82 80 77 73 69 66 68 75 79 78 79 80 77 74 71 71 70 70 69 62 51 44 59 65 74 79 76 68 63 68 83
82 79 65 50 51 53 54 74 81 79 75 77 78 75 69 62 63 64 63 67 72 74 74 75 73 70 67 65 65 67 64 56 42 34 37 77 78 74 74 70 66 68 77
104 78 80 72 58 56 54 66 66 70 65 64 62 65 58 43 43 52 59 66 68 70 69 69 70 68 63 60 61 60 55 44 38 37 44 73 78 76 73 71 70 71 75
165 153 121 116 93 70 65 60 50 55 52 53 53 52 49 44 39 46 53 59 59 59 59 61 63 61 55 48 51 51 42 37 39 34 54 65 70 74 76 73 71 70 75
173 162 153 150 118 94 80 74 60 57 54 53 57 58 57 49 41 39 40 42 44 49 46 46 50 49 50 49 48 44 38 36 31 27 38 51 61 70 75 77 77 74 70
165 174 164 150 132 114 102 92 85 78 69 66 59 65 67 58 50 46 47 40 42 45 49 44 45 47 50 49 50 49 41 34 29 25 29 41 51 60 62 65 70 72 70
175 185 179 153 146 131 114 111 104 100 97 95 80 73 82 83 71 59 52 51 47 48 57 55 53 49 46 45 47 49 42 35 32 29 24 37 43 50 54 55 62 67 71
186 192 175 157 155 138 131 129 121 124 115 99 94 92 98 102 98 80 66 57 53 53 62 65 61 61 53 52 46 41 39 34 34 31 26 27 34 40 44 47 58 62 65
183 181 174 165 150 143 144 139 127 127 117 107 105 99 104 106 108 101 84 66 55 66 71 70 60 60 60 54 47 40 37 34 33 31 29 25 24 34 41 42 45 51 55
166 166 176 163 146 146 141 130 122 119 113 106 109 110 113 113 115 109 99 80 67 74 75 76 65 61 53 47 40 31 31 29 30 30 34 32 27 26 32 37 42 46 50
167 162 163 154 150 150 136 117 108 105 101 96 98 105 107 108 114 112 108 101 90 80 74 84 68 74 66 48 45 36 28 25 23 32 34 31 30 28 24 26 33 42 46
157 153 156 150 146 139 121 101 87 77 70 76 95 105 109 108 108 107 106 102 101 93 77 79 84 67 68 55 59 45 28 21 28 32 29 29 28 29 27 26 25 30 40
148 153 157 154 157 144 135 137 132 137 116 68 79 98 111 116 117 114 113 111 107 107 110 105 97 82 57 45 63 36 19 26 36 30 24 32 29 24 25 25 26 24 23
172 171 167 170 166 167 159 151 141 135 127 121 78 82 111 124 126 127 125 126 120 112 104 102 106 98 58 44 87 74 18 360 9 19 20 30 23 18 24 25 26 29 25
184 185 183 181 173 166 147 123 103 80 62 61 60 61 120 139 135 131 134 133 134 133 140 140 132 125 124 44 61 115 125 231 325 349 12 23 19 17 12 15 23 22 25
196 185 182 175 167 162 150 150 151 152 167 195 182 174 141 142 141 140 141 140 140 137 146 159 140 128 127 123 61 56 107 149 141 336 343 358 10 14 5 12 13 10 16
185 177 176 167 167 166 161 163 160 161 173 160 140 143 152 145 148 150 147 146 150 150 154 150 135 130 129 142 142 127 86 62 90 136 299 329 351 354 354 352 1 0 359
173 166 166 166 174 171 164 165 168 170 168 158 167 170 175 153 169 171 152 154 158 156 162 164 155 148 145 133 131 134 144 146 162 145 175 294 321 325 335 349 358 348 344